Location: Augirein
(42.9320°N, 0.9181°E)
Time: 17:06:17
(UTC+00:00)

NOSS 2-2 (D) - Pass Details

Date: 20 June 2021
Orbit: 453 x 1754 km, 63.3° (Epoch: 01 August)

Event Time Altitude Azimuth Distance (km) Brightness Sun altitude
Exits shadow 01:31:04 52° 123° (ESE) 575 3.3 -20.3°
Maximum altitude 01:31:05 52° 122° (ESE) 575 3.3 -20.2°
Drops below altitude 10° 01:34:32 10° 45° (NE) 1,659 6.8 -20.0°
Sets 01:36:49 0° 40° (NE) 2,631 8.2 -19.8°
